Regional Weather Roundup
Issued by NWS State College, PA

Home | Current Version | Previous Version | Text Only | Print | Product List | Glossary On
Versions: 1 2 3 4 5 6 7 8 9 10 11 12 13 14 15 16 17 18 19 20 21 22 23 24 25 26 27 28 29 30 31 32 33 34 35 36 37 38 39 40 41 42 43 44 45 46 47 48 49 50
000
ASUS41 KCTP 252210
RWRCTP

REGIONAL WEATHER ROUNDUP
NATIONAL WEATHER SERVICE STATE COLLEGE PA
600 PM EDT FRI JUL 25 2014

Note: "fair" indicates few or no clouds below 12,000 feet with no
significant weather and/or obstructions to visibility.

* = STATION THAT DOES NOT REPORT PRECIPITATION /E.G. RAIN...SNOW...ETC/
    THUNDER OR FOG.

PAZ002>004-007>009-013>016-020>023-029>032-252300-
WESTERN PENNSYLVANIA

CITY           SKY/WX    TMP DP  RH WIND       PRES   REMARKS
ERIE           MOSUNNY   73  56  54 NW5       30.02F
MEADVILLE      SUNNY     72  50  45 W7        30.03F
FRANKLIN*      SUNNY     73  50  43 SW6       30.05S
NEW CASTLE       N/A     76  50  40 CALM      30.03F
BEAVER COUNTY  SUNNY     75  46  35 SW3       30.03F
BUTLER*        SUNNY     75  52  43 W6        30.05S
PITTSBURGH INT PTSUNNY   77  47  34 W5        30.02F
PITTSBURGH     SUNNY     76  46  34 SW6       30.02S
INDIANA*       SUNNY     77  48  36 VRB7      30.07S
LATROBE        MOSUNNY   75  54  46 W7        30.04R
WASHINGTON CO* SUNNY     75  54  46 SW7       30.04F
$$

PAZ004>006-010>012-017>019-024>028-033>037-041-042-045-046-049>053-252300-
CENTRAL PENNSYLVANIA

CITY           SKY/WX    TMP DP  RH WIND       PRES   REMARKS
BRADFORD       SUNNY     73  42  32 VRB6      30.04S
DUBOIS         SUNNY     74  48  39 W10       30.04R
CLEARFIELD     SUNNY     75  48  38 W9        30.03S
JOHNSTOWN      SUNNY     72  45  37 W9        30.07R
ALTOONA        SUNNY     78  52  40 CALM      30.03S
STATE COLLEGE  SUNNY     75  50  41 SW5       30.02S
WILLIAMSPORT   SUNNY     79  50  36 SW3       29.97F
SELINSGROVE    SUNNY     79  52  38 VRB3      29.99F
FT INDIANTOWN  SUNNY     80  50  34 VRB3      30.00S
CAPITAL CITY   SUNNY     78  47  33 CALM      29.99F
HARRISBURG     MOSUNNY   80  48  32 NW6       29.99S
YORK           SUNNY     78  49  35 CALM      30.01S
$$

PAZ038>040-043-044-047-048-054-055-060>062-067>071-252300-
EASTERN PENNSYLVANIA

CITY           SKY/WX    TMP DP  RH WIND       PRES   REMARKS
SCRANTON       SUNNY     80  47  31 NW3       29.99F
MOUNT POCONO   MOSUNNY   72  55  55 SE6       30.03F
ALLENTOWN      SUNNY     80  55  42 W5        29.98S
QUAKERTOWN*    CLEAR     79  55  44 SW3       30.00S
READING        SUNNY     80  51  36 W8        29.98F
LANCASTER      SUNNY     77  53  43 NW5       30.00S
COATESVILLE      N/A     75  50  41 SW5       30.02S
POTTSTOWN      MOSUNNY   80  54  40 SW6       30.00S
BLUE BELL      MOSUNNY   82  54  36 CALM      29.98R
DOYLESTOWN     MOSUNNY   79  54  41 S6        29.98R
WILLOW GROVE   NOT AVBL
NORTH PHILA    SUNNY     84  51  31 NE6       29.99R
PHILADELPHIA   MOSUNNY   83  52  34 W10       29.98R
$$


USA.gov is the U.S. government's official web portal to all federal, state and local government web resources and services.